Location: Trebic
(49.2170°N, 15.8830°E)
Time: 21:10:40
(UTC+02:00)

A-11 Canister half - All Passes

Search period start: 16 July 2019 00:00
Search period end: 26 July 2019 00:00
Orbit: 1515 x 1685 km, 47.2° (Epoch: 15 July)

Date Brightness Start Highest point End Pass type
(mag) Time Alt. Az. Time Alt. Az. Time Alt. Az.
16 Jul - 02:27:55 10° SE 02:30:47 11° ESE 02:33:38 10° ESE visible
16 Jul - 04:24:25 10° SSW 04:33:29 39° SE 04:42:34 10° ENE visible
16 Jul - 06:27:31 10° WSW 06:37:38 72° SSE 06:47:40 10° E daylight
16 Jul - 08:32:23 10° W 08:42:35 79° S 08:52:32 10° ESE daylight
16 Jul - 10:37:28 10° WNW 10:47:06 52° SSW 10:56:26 10° SE daylight
16 Jul - 12:43:47 10° W 12:50:17 20° SW 12:56:39 10° S daylight
17 Jul - 02:06:50 10° SE 02:08:00 10° ESE 02:09:10 10° ESE visible
17 Jul - 04:01:41 10° SSW 04:10:37 37° SE 04:19:35 10° ENE visible
17 Jul - 06:04:37 10° WSW 06:14:42 71° SSE 06:24:44 10° E daylight
17 Jul - 08:09:26 10° W 08:19:38 80° S 08:29:37 10° ESE daylight
17 Jul - 10:14:30 10° WNW 10:24:13 54° SSW 10:33:38 10° SE daylight
17 Jul - 12:20:38 10° W 12:27:29 21° SW 12:34:12 10° S daylight
18 Jul - 03:38:58 10° SSW 03:47:45 36° SE 03:56:36 10° ENE visible
18 Jul - 05:41:42 10° WSW 05:51:46 69° SSE 06:01:48 10° E daylight
18 Jul - 07:46:29 10° W 07:56:41 80° S 08:06:42 10° E daylight
18 Jul - 09:51:32 10° WNW 10:01:19 56° SSW 10:10:50 10° SE daylight
18 Jul - 11:57:30 10° W 12:04:40 23° SW 12:11:42 10° S daylight
19 Jul - 03:16:15 10° SSW 03:24:54 34° SE 03:33:36 10° ENE visible
19 Jul - 05:18:48 10° WSW 05:28:50 68° SSE 05:38:51 10° E daylight
19 Jul - 07:23:31 10° W 07:33:44 81° S 07:43:46 10° E daylight
19 Jul - 09:28:35 10° WNW 09:38:25 58° SSW 09:48:00 10° SE daylight
19 Jul - 11:34:24 10° W 11:41:52 24° SW 11:49:10 10° S daylight
20 Jul - 02:53:35 10° SSW 03:02:03 32° SE 03:10:34 10° E visible
20 Jul - 04:55:55 10° WSW 05:05:54 66° SSE 05:15:55 10° E daylight
20 Jul - 07:00:34 10° W 07:10:47 81° S 07:20:51 10° E daylight
20 Jul - 09:05:36 10° WNW 09:15:31 60° SSW 09:25:10 10° SE daylight
20 Jul - 11:11:18 10° W 11:19:02 26° SW 11:26:37 10° S daylight
21 Jul - 02:30:55 10° S 02:39:12 30° SE 02:47:33 10° E visible
21 Jul - 04:33:01 10° SW 04:42:59 64° SSE 04:52:58 10° E visible
21 Jul - 06:37:36 10° W 06:47:49 81° S 06:57:55 10° E daylight
21 Jul - 08:42:38 10° WNW 08:52:35 62° SSW 09:02:19 10° SE daylight
21 Jul - 10:48:14 10° W 10:56:13 28° SW 11:04:01 10° S daylight
22 Jul - 02:08:16 10° S 02:16:21 29° SE 02:24:31 10° E visible
22 Jul - 04:10:09 10° SW 04:20:03 63° SSE 04:30:01 10° ENE visible
22 Jul - 06:14:39 10° W 06:24:52 81° S 06:34:58 10° E daylight
22 Jul - 08:19:41 10° W 08:29:41 63° SSW 08:39:28 10° SE daylight
22 Jul - 10:25:11 10° W 10:33:23 29° SW 10:41:25 10° S daylight
23 Jul - 01:45:40 10° S 01:53:30 27° SE 02:01:28 10° E visible
23 Jul - 03:47:16 10° SW 03:57:08 61° SSE 04:07:04 10° ENE visible
23 Jul - 05:51:42 10° W 06:01:54 81° S 06:12:03 10° E daylight
23 Jul - 07:56:44 10° W 08:06:45 65° SSW 08:16:35 10° SE daylight
23 Jul - 10:02:08 10° W 10:10:32 31° SW 10:18:47 10° SSE daylight
24 Jul - 01:23:05 10° S 01:30:41 25° SE 01:38:23 10° E visible
24 Jul - 03:24:25 10° SW 03:34:13 59° SSE 03:44:06 10° ENE visible
24 Jul - 05:28:45 10° W 05:38:56 81° S 05:49:06 10° E daylight
24 Jul - 07:33:45 10° W 07:43:50 67° SSW 07:53:43 10° ESE daylight
24 Jul - 09:39:07 10° WNW 09:47:42 33° SW 09:56:06 10° SSE daylight
25 Jul - 01:00:31 10° S 01:07:51 24° SE 01:15:18 10° E visible
25 Jul - 03:01:35 10° SW 03:11:18 57° SSE 03:21:10 10° ENE visible
25 Jul - 05:05:49 10° W 05:15:59 81° S 05:26:10 10° E daylight
25 Jul - 07:10:49 10° W 07:20:54 69° SSW 07:30:50 10° ESE daylight
25 Jul - 09:16:06 10° WNW 09:24:51 35° SW 09:33:27 10° SSE daylight
